Погода в Заречье

Россия / Калининградская область     54°47′16″N   20°53′03″E
темп.,
°C
ветер,
м/с
пор.,
м/с
влажн.,
%
обл.,
%
осадки,
мм/ч
давл.,
гПа
погр.,
м
29 мая, вс
вс2923:00+7юз3696100 0.0 1006197
02:00+8юз3698100 1.5 1006271
05:00+9юз4997100 3.3 1005569
08:00+10з3595100 4.2 1006316
11:00+10сз369197 0.6 1009549
14:00+14сз456759 1.1 10101261
17:00+14с336585 0.1 1011790
20:00+10ссв23815 0.1 101161
30 мая, пн
пн3023:00+7в2285100 0.0 101225
02:00+8всв2482100 0.0 1012104
05:00+8в2683100 0.0 1012162
08:00+9всв2397100 2.3 1012142
11:00+10св3397100 2.3 1012145
14:00+11св2393100 3.6 1011416
17:00+11с3494100 1.8 1011362
20:00+10сз4696100 1.9 1011359
31 мая, вт
вт3123:00+7з389794 0.0 1012194
02:00+6зюз4109893 0.0 1013233
05:00+7зюз41097100 0.0 1014290
08:00+11з5887100 0.0 1015712
11:00+13з567683 0.6 10161155
14:00+16з565713 0.8 10161597
17:00+16з456014 0.0 10161407
20:00+12зсз11845 0.1 101613
1 июня, ср
ср123:00+9вюв1188100 0.0 101610
02:00+8ю349462 0.0 101665
05:00+8ююв3591100 0.0 101683
08:00+13ююв2372100 0.0 1015233
11:00+14ю3373100 0.1 1014569
14:00+11ссз3596100 3.2 1014206
17:00+14сз2376100 1.4 1014607
20:00+12зюз23863 1.4 101354
2 июня, чт
чт223:00+9ю2293100 0.0 101311
02:00+9ююз2698100 1.8 1012195
05:00+10ююз51097100 4.8 1010605
08:00+10зсз5109591 5.4 1012690
11:00+14з6879100 0.5 10141007
14:00+16зсз796478 1.6 10161369
17:00+15зсз6864100 0.0 10171130
20:00+12зюз248181 0.0 101891